Location: Unspecified
(0.0000°N, 0.0000°E)
Time: 00:24:02
(UTC+00:00)

STARLINK-1037 - Pass Details

Date: 05 December 2020
Orbit: 544 x 546 km, 53.0° (Epoch: 16 January)

Event Time Altitude Azimuth Distance (km) Brightness Sun altitude
Rises 20:11:33 0° 295° (WNW) 2,695 7.6 -32.1°
Reaches altitude 10° 20:14:34 10° 271° (W) 1,805 6.9 -32.8°
Maximum altitude 20:16:58 15° 235° (SW) 1,503 6.5 -33.3°
Drops below altitude 10° 20:19:24 10° 199° (SSW) 1,807 6.7 -33.9°
Enters shadow 20:20:19 - 189° (S) 2,043 6.9 -34.1°
